Location: Oakhurst
(33.6448°N, 111.9543°W)
Time: 03:32:37
(UTC+00:00)

DUCHIFAT 1 - Pass Details

Date: 02 August 2021
Orbit: 585 x 602 km, 98.0° (Epoch: 24 September)

Event Time Altitude Azimuth Distance (km) Brightness Sun altitude
Rises 09:10:17 0° 14° (NNE) 2,845 ? -33.8°
Reaches altitude 10° 09:12:28 10° 17° (NNE) 1,942 ? -33.6°
Enters shadow 09:14:07 23° 21° (NNE) 1,290 ? -33.4°
